Weather History for KCLE - April, 2014

Change the Weather History Date:

Friday, April 18, 2014

  Actual Average Record
Temperature  
Mean Temperature 56 °F 51 °F  
Max Temperature 66 °F 60 °F 85 °F (1896)
Min Temperature 46 °F 41 °F 17 °F (1875)
Degree Days  
Heating Degree Days 9 15  
Month to date heating degree days 273 319  
Since 1 July heating degree days 5963 5362  
Cooling Degree Days 0 0  
Month to date cooling degree days 6 0  
Year to date cooling degree days 6 1  
Growing Degree Days 6 (Base 50)    
Moisture  
Dew Point 36 °F    
Average Humidity 55    
Maximum Humidity 71    
Minimum Humidity 39    
Precipitation  
Precipitation 0.00 in 0.11 in 1.31 in (1969)
Month to date precipitation 3.52 2.18  
Year to date precipitation 10.75 10.17  
Snow  
Snow 0.00 in 0.10 in - ()
Month to date snowfall 1.3 2.9  
Since 1 July snowfall 86.1 67.7  
Snow Depth 0.00 in    
Sea Level Pressure  
Sea Level Pressure 30.29 in    
Wind  
Wind Speed 9 mph (East)    
Max Wind Speed 16 mph    
Max Gust Speed 20 mph    
Visibility 10 miles    
Events      
T = Trace of Precipitation, MM = Missing Value Source: NWS Daily Summary

Daily Weather History Graph

Daily Weather History Graph

Search for Another Location

Airport or City:

Trip Planner

Search our weather history database for the weather conditions in past years. The results will help you decide how hot, cold, wet, or windy it might be!

Date:

Astronomy

Apr. 18, 2014 Rise Set
Actual Time 6:43 AM EDT 8:11 PM EDT
Civil Twilight 6:14 AM EDT 8:40 PM EDT
Nautical Twilight 5:39 AM EDT 9:14 PM EDT
Astronomical Twilight 5:02 AM EDT 9:52 PM EDT
Moon 11:56 PM EDT (4/18) 9:02 AM EDT (4/18)
Length of Visible Light 14h 25m
Length of Day
13h 27m
Waning Gibbous, 87% of the Moon is Illuminated
Apr 18
Waning Gibbous
Apr 22
Last Quarter
Apr 29
New
May 6
First Quarter
May 14
Full

Hourly Weather History & Observations

Time (EDT) Temp. Windchill Dew Point Humidity Pressure Visibility Wind Dir Wind Speed Gust Speed Precip Events Conditions
12:51 AM 53.1 °F - 33.1 °F 47% 30.30 in 10.0 mi SSE 8.1 mph - N/A   Mostly Cloudy
1:51 AM 54.0 °F - 30.9 °F 41% 30.30 in 10.0 mi SSE 13.8 mph - N/A   Mostly Cloudy
2:51 AM 51.1 °F - 30.0 °F 44% 30.28 in 10.0 mi SSE 13.8 mph - N/A   Mostly Cloudy
3:51 AM 50.0 °F - 30.0 °F 46% 30.28 in 10.0 mi SSE 11.5 mph - N/A   Scattered Clouds
4:51 AM 48.9 °F - 30.0 °F 48% 30.28 in 10.0 mi SSE 11.5 mph - N/A   Mostly Cloudy
5:51 AM 46.0 °F 41.4 °F 30.0 °F 54% 30.28 in 10.0 mi South 9.2 mph - N/A   Mostly Cloudy
6:51 AM 51.1 °F - 28.9 °F 43% 30.29 in 10.0 mi South 8.1 mph - N/A   Mostly Cloudy
7:51 AM 52.0 °F - 28.9 °F 41% 30.30 in 10.0 mi South 10.4 mph - N/A   Mostly Cloudy
8:51 AM 52.0 °F - 30.9 °F 45% 30.31 in 10.0 mi SW 5.8 mph - N/A   Overcast
9:51 AM 55.9 °F - 33.1 °F 42% 30.32 in 10.0 mi WSW 9.2 mph - N/A   Overcast
10:51 AM 57.2 °F - 35.6 °F 44% 30.31 in 10.0 mi West 4.6 mph - N/A   Overcast
11:51 AM 60.1 °F - 36.0 °F 41% 30.30 in 10.0 mi WNW 6.9 mph - N/A   Overcast
12:51 PM 60.1 °F - 39.0 °F 46% 30.31 in 10.0 mi NNE 11.5 mph - N/A   Scattered Clouds
1:51 PM 62.1 °F - 39.9 °F 44% 30.30 in 10.0 mi Variable 3.5 mph - N/A   Scattered Clouds
2:51 PM 64.0 °F - 39.9 °F 41% 30.28 in 10.0 mi Calm Calm - N/A   Overcast
3:51 PM 63.0 °F - 39.9 °F 43% 30.27 in 10.0 mi NNW 10.4 mph - N/A   Overcast
4:51 PM 63.0 °F - 39.9 °F 43% 30.27 in 10.0 mi North 9.2 mph - N/A   Overcast
5:51 PM 63.0 °F - 39.9 °F 43% 30.26 in 10.0 mi NNE 8.1 mph - N/A   Mostly Cloudy
6:51 PM 60.1 °F - 39.9 °F 47% 30.26 in 10.0 mi North 10.4 mph - N/A   Scattered Clouds
7:51 PM 55.0 °F - 39.9 °F 57% 30.26 in 10.0 mi North 8.1 mph - N/A   Mostly Cloudy
8:51 PM 50.0 °F - 37.9 °F 63% 30.28 in 10.0 mi NNE 11.5 mph - N/A   Mostly Cloudy
9:51 PM 50.0 °F - 41.0 °F 71% 30.30 in 10.0 mi NE 13.8 mph - N/A   Mostly Cloudy
10:51 PM 50.0 °F - 41.0 °F 71% 30.30 in 9.0 mi NE 5.8 mph - N/A   Scattered Clouds
11:51 PM 51.8 °F - 39.2 °F 62% 30.31 in 10.0 mi ENE 8.1 mph - N/A   Scattered Clouds